Location: Newark
(40.7066°N, 111.8219°W)
Time: 13:45:44
(UTC+00:00)

Transit 2A Rocket - Pass Details

Date: 26 November 2019
Orbit: 594 x 909 km, 66.7° (Epoch: 13 December)

Event Time Altitude Azimuth Distance (km) Brightness Sun altitude
Rises 02:37:28 0° 190° (S) 3,091 8.3 -28.9°
Enters shadow 02:39:40 - 184° (S) 2,246 7.5 -29.3°
Reaches altitude 10° 02:40:00 10° 183° (S) 2,125 - -29.4°
Maximum altitude 02:44:27 40° 114° (ESE) 957 - -30.2°
Drops below altitude 10° 02:48:38 10° 45° (NE) 1,994 - -31.0°
Sets 02:50:56 0° 38° (NE) 2,877 - -31.5°
